Regional Weather Roundup
Issued by NWS Bismarck, ND

Home | Current Version | Previous Version | Text Only | Print | Product List | Glossary On
Versions: 1 2 3 4 5 6 7 8 9 10 11 12 13 14 15 16 17 18 19 20 21 22 23 24 25 26 27 28 29 30 31 32 33 34 35 36 37 38 39 40 41 42 43 44 45 46 47 48 49 50
000
ASUS43 KBIS 210410
RWRBIS

NWR BROADCAST TEXT
NATIONAL WEATHER SERVICE BISMARCK ND
1000 PM CST FRI JAN 20 2017

NOTE: "FAIR" INDICATES FEW OR NO CLOUDS BELOW 12,000 FEET WITH NO
SIGNIFICANT WEATHER AND/OR OBSTRUCTIONS TO VISIBILITY.


CITY           SKY/WX    TMP DP  RH WIND       PRES   REMARKS
WILLISTON      FAIR      26  23  88 SE3       29.32S
MINOT          CLOUDY    28  27  96 S5        29.33F FOG
MINOT AFB      CLOUDY    25  25 100 CALM      29.32F
BISMARCK       CLOUDY    31  30  96 W3        29.34R FOG
DICKINSON      FAIR      23  21  92 W9        29.29S WCI  13
GARRISON         N/A     24  23  96 W6        29.32F WCI  17
HETTINGER ARPT FAIR      28  24  85 NW13      29.31F WCI  17
JAMESTOWN      FOG       33  33 100 SE12      29.34F VSB 1/4
CARRINGTON     FOG       34  34 100 SE9       29.37F VSB 1/4
HAZEN          FOG      N/A N/A N/A CALM      29.35S VSB 3/4
MANDAN         CLOUDY    28  28 100 NW6       29.33S
RUGBY            N/A     32  32 100 SE8       29.35F FOG
STANLEY        MOCLDY    14  14 100 CALM      29.32F FOG
TIOGA          FAIR      10  10 100 W6        29.32S FOG     WCI   1
WATFORD CITY   FAIR      18  18 100 SW5       29.32S WCI  11
$$

CITY           SKY/WX    TMP DP  RH WIND       PRES   REMARKS
GRAND FORKS    CLOUDY    36  33  89 SE10      29.44S FOG
GRAND FORKS AF CLOUDY    34  34  99 SE9       29.43S
DEVILS LAKE    FOG       33  32  96 SE7       29.38F VSB 1/2
FARGO          CLOUDY    39  35  86 SE12      29.42F
CAVALIER         N/A     34  34 100 SE7       29.44F FOG
GRAFTON        CLOUDY    34  34 100 SE9       29.46S FOG
GWINNER        CLOUDY    34  34 100 SE13      29.38F VSB 1/4
ROLLA            N/A    N/A N/A N/A MISG        N/A
$$

CITY           SKY/WX    TMP DP  RH WIND       PRES   REMARKS
ABERDEEN       CLOUDY    32  29  88 CALM      29.36S
MOBRIDGE       CLOUDY    24  21  88 SE3       29.29S FOG
BUFFALO          N/A     35  30  82 NW16      29.27S
RAPID CITY     CLOUDY    37  31  78 NW12      29.35R
GLASGOW        FAIR      30  27  88 W7        29.34F
SIDNEY         FAIR      35  28  75 W10       29.32F
WOLF POINT     MOCLDY    30  26  85 SW6       29.35F
GLENDIVE       CLOUDY    35  29  78 W13       29.35S
MILES CITY     MOCLDY    34  31  88 CALM      29.38S
BAKER          CLOUDY    32  29  88 W10       29.35S
$$

CITY           SKY/WX    TMP DP  RH WIND       PRES   REMARKS
BILLINGS       FAIR      31  26  82 SW12      29.37F
GREAT FALLS    FAIR      28  18  66 S8        29.32F WCI  20
REGINA         MOCLDY    25  23  93 SE3       29.29F
ESTEVAN        CLOUDY    12  10  92 E7        29.31S FOG     WCI   2
$$





USA.gov is the U.S. government's official web portal to all federal, state and local government web resources and services.